Flag for U.S.A. Weather past 2 weeks in Youngstown, Ohio, U.S.A.

Now
58 °F

Partly cloudy.


Feels Like: 57 °F
Forecast: 57 / 77 °F
Wind: 7 mph from South

Location: Youngstown-Warren Regional Airport

Current Time: Jul 31, 2014 at 4:20:33 AM

Latest Report: Jul 31, 2014 at 3:51 AM


Visibility: 10 mi

Pressure: 30.01 "Hg

Humidity: 90%

Dew point: 55 °F

Location of YoungstownLocation

Historic Weather in Youngstown — Graph

°F

Youngstown temperature yesterday

Maximum temperature yesterday: 73 °F (at 1:51 PM)
Minimum temperature yesterday: 58 °F (at 1:51 AM)
Average temperature yesterday: 64 °F

Past Weeks' High & Low Weather Summary

 TemperatureHumidityPressure
High84 °F (Jul 21, 5:51 PM)100% (Jul 28, 8:01 AM)30.26 "Hg (Jul 28, 8:01 AM)
Low47 °F (Jul 18, 4:51 AM)36% (Jul 18, 1:51 PM)29.60 "Hg (Jul 27, 8:51 PM)
Average66 °F77%30.01 "Hg
* Reported Jul 16 2:51 AM — Jul 31 2:51 AM, Youngstown, Weather by CustomWeather, © 2014

Note: Actual official high and low records may vary slightly from our data, if they occured in-between our weather recording intervals... More about our weather records

Advertising

Youngstown weather history for previous 24 hours

 ConditionsComfort  
Time TempWeatherWind HumidityBarometerVisibility
2:51 AM
Jul 31
59 °FPartly cloudy.7 mph90%30.00 "Hg10 mi
1:51 AM60 °FThunderstorms. Mostly cloudy.9 mph90%30.01 "Hg10 mi
12:51 AM61 °FThunderstorms. Mostly cloudy.6 mph90%30.02 "Hg10 mi
11:51 PM
Jul 30
61 °FMostly cloudy.5 mph87%30.03 "Hg10 mi
10:51 PM61 °FOvercast.No wind87%30.02 "Hg10 mi
9:51 PM63 °FMostly cloudy.5 mph81%30.03 "Hg10 mi
8:51 PM64 °FMostly cloudy.5 mph84%30.01 "Hg10 mi
7:51 PM65 °FPartly sunny.3 mph85%30.01 "Hg10 mi
6:51 PM67 °FBroken clouds.No wind76%30.00 "Hg10 mi
5:51 PM66 °FLight rain. Broken clouds.3 mph87%30.01 "Hg10 mi
4:51 PM68 °FThunderstorms. More clouds than sun.3 mph73%30.00 "Hg10 mi
3:53 PM70 °FThunderstorms. Mostly cloudy.10 mph57%30.01 "Hg10 mi
2:51 PM73 °FBroken clouds.8 mph53%29.99 "Hg10 mi
1:51 PM73 °FCloudy.13 mph55%30.00 "Hg10 mi
12:51 PM71 °FCloudy.7 mph59%30.02 "Hg10 mi
11:51 AM69 °FCloudy.10 mph63%30.02 "Hg10 mi
10:51 AM68 °FBroken clouds.8 mph68%30.02 "Hg10 mi
9:51 AM64 °FBroken clouds.6 mph75%30.03 "Hg10 mi
8:51 AM62 °FMore clouds than sun.8 mph75%30.03 "Hg10 mi
7:51 AM59 °FMore clouds than sun.8 mph78%30.01 "Hg10 mi
6:51 AM58 °FOvercast.6 mph78%30.00 "Hg10 mi
5:51 AM59 °FMostly cloudy.7 mph72%30.00 "Hg10 mi
4:51 AM59 °FPassing clouds.7 mph72%29.99 "Hg10 mi
Weather by CustomWeather, © 2014

See weather overviewHow to use our weather pages